Meteopurmerend
purmerend
Purmerend - Baaienwijk



My webcam  My webcam


waarschuwing voor Onweer Meer informatie blitzortung!


Regen radar Meer informatie rain snow radar


Bezoek onze andere website:

CandyAppleRed WebdesignWebdesign Purmerend Candy Apple Red

MeteopurmerendBlog

Template documentation
and downloads



Onweer van: 26-07-2021 15:00 tot: 21:00 waarschuwing voor: Onweer niveau: Geel info button
Enkele onweersbuien, lokaal met hagel en veel neerslag in korte tijd.Kans op blikseminslag, hagel en veel neerslag in korte tijd.Verkeer en buitenactiviteiten kunnen hinder ondervinden.Mijd open water en open gebied, schuil niet onder bomen.Volg weerberichten en waarschuwingen.

15 daagse weersverwachting Sigtuna, Upplands Väsby (SE)

  • Overzicht
  • Per uur
  • 15 dagen
  • Extra
  • Vergelijk
  • Kaarten
  • Dagkaart
  • Meer »
  • Info
  • Statistieken
  • Directe link
    Temp 6h Neerslag Wind  
 04:22     21:28    Daglengte: 17:06 Vandaag
20:00
22°
 
3
 04:25     21:26    Daglengte: 17:01 Morgen
02:00
18°
 
2
08:00
22°
 
4
14:00
27°
 
5
20:00
23°
 
4
 04:27     21:24    Daglengte: 16:57 Woensdag 28 Jul
02:00
19°
 
2
08:00
19°
 
3
14:00
22°
10.6 mm
4
warningclass
20:00
22°
21.7 mm
3
 04:29     21:21    Daglengte: 16:52 Donderdag 29 Jul
02:00
18°
3.9 mm
2
08:00
19°
 
3
14:00
20°
23.7 mm
5
Locatie info
Region: Stockholms län
Latitude: 59.5146°N
Longitude: 18.0083°E
17 masl
Postcode: 194 33
Temp/Neerslag /Baro Onweer/Dauwpunt
    Temp Baro 1h Neerslag Dauwpunt Wind UV Bewolking  
 04:22     21:28    Daglengte: 17:06 Vandaag
17:00
25°
1017.7 hPa   13.8°
4
Windvlaag: 4.5 m/s
25%
18:00
25°
1017.4 hPa   14.4°
4
Windvlaag: 4.1 m/s
37%
19:00
23°
1017.3 hPa   14.9°
4
Windvlaag: 3.7 m/s
48%
20:00
22°
1017.1 hPa   15.6°
3
Windvlaag: 3.3 m/s
49%
21:00
21°
1017.1 hPa   16.3°
3
Windvlaag: 3.1 m/s
58%
22:00
19°
1017.0 hPa   17.2°
2
Windvlaag: 2.6 m/s
66%
23:00
19°
1017.0 hPa   18.0°
2
Windvlaag: 2 m/s
66%
 04:25     21:26    Daglengte: 17:01 Morgen
00:00
18°
1016.9 hPa   18.0°
2
Windvlaag: 1.9 m/s
67%
01:00
18°
1016.4 hPa   17.8°
2
Windvlaag: 1.5 m/s
16%
02:00
18°
1016.1 hPa   17.6°
2
Windvlaag: 2 m/s
35%
03:00
18°
1015.7 hPa   17.2°
2
Windvlaag: 1.8 m/s
49%
04:00
18°
1015.3 hPa   17.3°
2
Windvlaag: 0.2 m/s
43%
05:00
18°
1014.8 hPa   17.7°
2
Windvlaag: -0.2 m/s
54%
06:00
19°
1014.4 hPa   18.4°
3
Windvlaag: 0.1 m/s
50%
07:00
21°
1014.0 hPa   18.7°
3
Windvlaag: 0.3 m/s
58%
08:00
22°
1013.8 hPa   18.3°
4
Windvlaag: 1.2 m/s
54%
09:00
24°
1013.7 hPa   16.3°
4
Windvlaag: 1.6 m/s
27%
10:00
26°
1013.5 hPa   15.5°
4
Windvlaag: 2 m/s
36%
11:00
26°
1013.2 hPa   14.5°
5
Windvlaag: 3.3 m/s
41%
12:00
27°
1012.9 hPa   13.2°
5
Windvlaag: 3.7 m/s
47%
13:00
27°
1012.7 hPa   14.5°
5
Windvlaag: 3.6 m/s
23%
14:00
27°
1012.3 hPa   15.7°
5
Windvlaag: 4.8 m/s
58%
15:00
26°
1012.0 hPa   16.8°
5
Windvlaag: 5.4 m/s
51%
16:00
26°
1011.8 hPa   16.7°
5
Windvlaag: 5.2 m/s
74%
17:00
26°
1011.6 hPa   15.4°
5
Windvlaag: 8.2 m/s
55%
18:00
26°
1011.5 hPa   13.8°
4
Windvlaag: 8.2 m/s
55%
19:00
25°
1011.1 hPa   13.8°
4
Windvlaag: 7 m/s
54%
20:00
23°
1010.9 hPa   14.7°
4
Windvlaag: 2.3 m/s
68%
21:00
22°
1010.6 hPa   15.2°
3
Windvlaag: 1.4 m/s
75%
22:00
21°
1010.4 hPa   15.2°
3
Windvlaag: -0 m/s
78%
23:00
20°
1010.0 hPa   15.6°
2
Windvlaag: -0.6 m/s
86%
 04:27     21:24    Daglengte: 16:57 Woensdag 28 Jul
00:00
19°
1009.6 hPa
40%
15.9°
2
Windvlaag: 0.9 m/s
85%
01:00
19°
1009.0 hPa
64%
16.4°
2
Windvlaag: 1.4 m/s
76%
02:00
19°
1008.5 hPa
20%
16.6°
2
Windvlaag: 1.9 m/s
83%
03:00
19°
1008.0 hPa
25%
16.8°
2
Windvlaag: 1.7 m/s
86%
04:00
19°
1007.6 hPa
71%
17.9°
2
Windvlaag: 2.1 m/s
86%
05:00
19°
1007.1 hPa
82%
18.2°
2
Windvlaag: 2.2 m/s
81%
06:00
19°
1006.7 hPa
82%
18.2°
3
Windvlaag: 2.2 m/s
86%
07:00
19°
1006.3 hPa
82%
18.5°
3
Windvlaag: 2.3 m/s
84%
08:00
19°
1006.0 hPa
82%
18.5°
3
Windvlaag: 3.1 m/s
86%
09:00
20°
1005.8 hPa
80%
19.0°
3
Windvlaag: 2.8 m/s
85%
10:00
20°
1005.6 hPa
81%
19.5°
3
Windvlaag: 2.6 m/s
63%
11:00
21°
1003.4 hPa 2.3 mm
100%
19.3°
3
Windvlaag: 3.6 m/s
81%
12:00
21°
1003.3 hPa 2.6 mm
94%
17.3°
4
Windvlaag: 3.9 m/s
92% warningclass
13:00
21°
1003.2 hPa 3.2 mm
97%
16.9°
4
Windvlaag: 5.1 m/s
63% warningclass
14:00
22°
1003.1 hPa 2.5 mm
100%
17.2°
4
Windvlaag: 4.8 m/s
53% warningclass
15:00
23°
1003.1 hPa 2.6 mm
100%
16.4°
5
Windvlaag: 4.4 m/s
82% warningclass
16:00
22°
1003.2 hPa 2.6 mm
100%
13.7°
5
Windvlaag: 4.5 m/s
83%
17:00
22°
1003.2 hPa 4.1 mm
85%
14.7°
4
Windvlaag: 4.3 m/s
85%
18:00
22°
1003.0 hPa 4.0 mm
31%
15.2°
4
Windvlaag: 4.3 m/s
60%
19:00
22°
1002.7 hPa 4.3 mm
21%
15.4°
4
Windvlaag: 4.7 m/s
59%
20:00
22°
1002.6 hPa 4.0 mm
22%
14.3°
3
Windvlaag: 4.9 m/s
35%
21:00
21°
1002.5 hPa
26%
14.8°
2
Windvlaag: 4.7 m/s
11%
22:00
20°
1002.4 hPa
81%
15.0°
2
Windvlaag: 4 m/s
25%
23:00
19°
1002.3 hPa
69%
14.5°
2
Windvlaag: 3.7 m/s
29%
 04:29     21:21    Daglengte: 16:52 Donderdag 29 Jul
00:00
19°
1002.2 hPa
21%
15.4°
2
Windvlaag: 3.3 m/s
17%
01:00
18°
1002.3 hPa
21%
15.5°
2
Windvlaag: 3.4 m/s
64%
02:00
18°
1002.1 hPa 3.9 mm
21%
15.2°
2
Windvlaag: 3.9 m/s
53%
03:00
17°
1001.7 hPa
21%
15.3°
2
Windvlaag: 3.4 m/s
46%
04:00
17°
1001.4 hPa
21%
15.3°
2
Windvlaag: 3.3 m/s
56%
05:00
17°
1001.2 hPa
21%
15.4°
2
Windvlaag: 3 m/s
75%
06:00
18°
1001.4 hPa
21%
15.4°
2
Windvlaag: 2.8 m/s
78%
07:00
18°
1001.1 hPa
21%
14.8°
3
Windvlaag: 3.2 m/s
67%
08:00
19°
1001.1 hPa
21%
14.3°
3
Windvlaag: 3.3 m/s
54%
09:00
20°
998.3 hPa
25%
13.3°
3
Windvlaag: 7.5 m/s
78%
10:00
20°
997.8 hPa
46%
13.1°
3
Windvlaag: 7.2 m/s
81%
11:00
21°
997.4 hPa
100%
12.6°
4
Windvlaag: 7.8 m/s
75%
12:00
21°
997.3 hPa 4.0 mm
100%
11.9°
4
Windvlaag: 8.1 m/s
99%
13:00
20°
996.9 hPa 4.6 mm
100%
11.0°
5
Windvlaag: 7.8 m/s
85% warningclass
14:00
20°
996.5 hPa 3.8 mm
100%
11.4°
5
Windvlaag: 8 m/s
74%
Temp/Neerslag /Baro Onweer/Dauwpunt
    Temp Baro Neerslag Dauwpunt Wind Bewolking  
 04:22     21:28    Daglengte: 17:06 Vandaag
17:00
25°
1017.7 hPa   13.8°
4
25%
20:00
22°
1017.1 hPa   15.6°
3
49%
23:00
19°
1017.0 hPa   18.0°
2
66%
 04:25     21:26    Daglengte: 17:01 Morgen
02:00
18°
1016.1 hPa   17.6°
2
35%
05:00
18°
1014.8 hPa   17.7°
2
54%
08:00
22°
1013.8 hPa   18.3°
4
54%
11:00
26°
1013.2 hPa   14.5°
5
41%
14:00
27°
1012.3 hPa   15.7°
5
58%
17:00
26°
1011.6 hPa   15.4°
5
55%
20:00
23°
1010.9 hPa   14.7°
4
68%
23:00
20°
1010.0 hPa   15.6°
2
86%
 04:27     21:24    Daglengte: 16:57 Woensdag 28 Jul
02:00
19°
1008.5 hPa   16.6°
2
83%
05:00
19°
1007.1 hPa   18.2°
2
81%
08:00
19°
1006.0 hPa   18.5°
3
86%
11:00
21°
1003.4 hPa 2.3 mm 19.3°
3
81%
14:00
22°
1003.1 hPa 8.2 mm 17.2°
4
53% warningclass
17:00
22°
1003.2 hPa 9.4 mm 14.7°
4
85%
20:00
22°
1002.6 hPa 12.3 mm 14.3°
3
35%
23:00
19°
1002.3 hPa   14.5°
2
29%
 04:29     21:21    Daglengte: 16:52 Donderdag 29 Jul
02:00
18°
1002.1 hPa 3.9 mm 15.2°
2
53%
05:00
17°
1001.2 hPa   15.4°
2
75%
08:00
19°
1001.1 hPa   14.3°
3
54%
11:00
21°
997.4 hPa   12.6°
4
75%
14:00
20°
996.5 hPa 12.4 mm 11.4°
5
74%
17:00
20°
997.3 hPa 7.4 mm 14.8°
7
1%
20:00
15°
996.6 hPa 8.4 mm 12.4°
4
1%
23:00
13°
995.3 hPa 9.6 mm 11.5°
4
1%
 04:31     21:19    Daglengte: 16:48 Vrijdag 30 Jul
02:00
12°
993.6 hPa 9.9 mm 10.9°
3
1%
05:00
11°
992.2 hPa 9.9 mm 10.8°
2
1%
08:00
14°
991.5 hPa 10.6 mm 11.9°
4
1%
11:00
14°
991.1 hPa 11.6 mm 11.8°
3
1%
14:00
18°
991.3 hPa 12.4 mm 11.8°
4
1%
17:00
20°
992.1 hPa 13.0 mm 11.3°
4
1%
20:00
18°
992.8 hPa 13.2 mm 12.9°
2
1%
23:00
15°
994.0 hPa 13.2 mm 13.5°
3
1%
 04:34     21:17    Daglengte: 16:43 Zaterdag 31 Jul
02:00
12°
995.4 hPa 13.2 mm 10.9°
2
0%
05:00
11°
996.7 hPa 13.2 mm 9.4°
2
0%
08:00
16°
997.9 hPa 13.2 mm 8.3°
2
0%
11:00
20°
998.6 hPa 13.2 mm 9.9°
3
0%
14:00
22°
998.8 hPa 13.2 mm 9.6°
4
1%
17:00
23°
998.7 hPa 13.2 mm 8.8°
3
1%
20:00
20°
998.9 hPa 13.2 mm 11.6°
2
1%
23:00
15°
999.0 hPa 13.2 mm 10.6°
2
0%
 04:36     21:14    Daglengte: 16:38 Zondag 01 Aug
02:00
15°
998.4 hPa 13.2 mm 11.2°
1
0%
05:00
15°
997.2 hPa 13.2 mm 11.9°
1
1%
08:00
18°
996.4 hPa 13.3 mm 12.1°
2
1%
11:00
15°
996.1 hPa 16.4 mm 14.0°
3
1%
14:00
15°
996.9 hPa 21.0 mm 13.6°
2
1%
17:00
18°
997.4 hPa 21.2 mm 13.1°
3
1%
20:00
16°
997.8 hPa 21.8 mm 13.4°
2
1%
23:00
13°
998.5 hPa 21.8 mm 10.9°
3
0%
 04:38     21:12    Daglengte: 16:34 Maandag 02 Aug
02:00
12°
998.2 hPa 21.8 mm 10.6°
3
0%
05:00
11°
998.1 hPa 21.8 mm 9.8°
2
0%
08:00
15°
997.4 hPa 21.8 mm 9.0°
4
0%
11:00
19°
996.8 hPa 21.8 mm 7.7°
4
0%
14:00
20°
996.2 hPa 43.6 mm 9.4°
4
0%
20:00
16°
996.9 hPa 45.4 mm 9.9°
4
1%
 04:40     21:09    Daglengte: 16:29 Dinsdag 03 Aug
02:00
Voelt als: 6.6°
1000.0 hPa 45.8 mm 7.1°
2
0%
08:00
14°
1001.4 hPa 45.8 mm 7.0°
2
0%
14:00
18°
1000.8 hPa 47.0 mm 8.2°
5
1%
20:00
14°
1003.1 hPa 49.6 mm 8.4°
3
1%
 04:43     21:07    Daglengte: 16:24 Woensdag 04 Aug
02:00
11°
1004.8 hPa 49.8 mm 8.8°
3
0%
08:00
15°
1005.7 hPa 49.8 mm 10.5°
5
1%
14:00
20°
1005.4 hPa 49.9 mm 11.1°
5
1%
20:00
15°
1003.1 hPa 53.6 mm 13.7°
2
1%
 04:45     21:04    Daglengte: 16:19 Donderdag 05 Aug
02:00
14°
1001.1 hPa 56.0 mm 13.3°
4
1%
08:00
15°
998.4 hPa 56.6 mm 13.6°
4
1%
14:00
21°
1007.7 hPa 1.5 mm 11.4°
1
60%
20:00
18°
1007.1 hPa 1.4 mm 12.0°
1
71%
 04:47     21:02    Daglengte: 16:15 Vrijdag 06 Aug
02:00
14°
1007.3 hPa 0.2 mm 11.2°
1
56%
08:00
17°
1007.2 hPa 0.2 mm 11.7°
0
66%
14:00
21°
1007.0 hPa 1.1 mm 11.0°
1
65%
20:00
18°
1005.9 hPa 1.4 mm 12.2°
1
63%
 04:50     20:59    Daglengte: 16:09 Zaterdag 07 Aug
02:00
15°
1005.6 hPa 0.6 mm 12.0°
0
63%
08:00
17°
1004.8 hPa 1.1 mm 12.3°
0
70%
14:00
21°
1004.8 hPa 1.4 mm 12.2°
1
74%
20:00
18°
1004.6 hPa 0.9 mm 12.4°
1
66%
 04:52     20:57    Daglengte: 16:05 Zondag 08 Aug
02:00
15°
1004.6 hPa 0.4 mm 12.1°
1
57%
08:00
17°
1004.3 hPa   12.5°
1
59%
14:00
22°
1004.9 hPa   11.6°
1
51%
20:00
18°
1005.0 hPa 1.0 mm 12.1°
1
60%
 04:54     20:54    Daglengte: 16:00 Maandag 09 Aug
02:00
15°
1005.5 hPa 0.5 mm 11.6°
1
58%
08:00
16°
1005.8 hPa 0.9 mm 12.4°
0
63%
14:00
21°
1006.5 hPa 1.2 mm 12.1°
1
63%
20:00
18°
1006.5 hPa 0.7 mm 12.0°
1
60%
 04:56     20:51    Daglengte: 15:55 Dinsdag 10 Aug
02:00
14°
1007.0 hPa 0.7 mm 11.0°
1
59%
08:00
16°
1007.1 hPa 0.6 mm 11.5°
1
64%
14:00
21°
1008.0 hPa   11.1°
1
62%
  CAPE Lifted Index Hail Supercell Tornado SRH 3km CL BTM PRES CL TOP PRES Swiss DWD icon SMHI TS
 04:22     21:28    Daglengte: 17:06 Vandaag
17:00 0 J/kg 2.3 K 0 % 0 % 0 % 0 m²/s² 0 0 7.88 3
18:00 0 J/kg 2.6 K 0 % 0 % 0 % 0 m²/s² 0 0 8.06 3
19:00 0 J/kg 2.2 K 0 % 0 % 0 % 0 m²/s² 0 0 7.66 3
20:00 0 J/kg 2.1 K 0 % 0 % 0 % 0 m²/s² 0 0 7.56 3
21:00 0 J/kg 1.5 K 0 % 0 % 0 % 0 m²/s² 0 0 6.96 3
22:00 0 J/kg 1.4 K 0 % 0 % 0 % 0 m²/s² 0 0 7.16 3
23:00 0 J/kg 1.1 K 0 % 0 % 0 % 0 m²/s² 0 0 6.86 3
 04:25     21:26    Daglengte: 17:01 Morgen
00:00 21 J/kg 0.7 K 0 % 0 % 0 % 0 m²/s² 0 0 6.61 3
01:00 20 J/kg 0.5 K 0 % 0 % 0 % 0 m²/s² 0 0 4.94 0
02:00 32 J/kg -0.4 K 0 % 0 % 0 % 0 m²/s² 0 0 1.76 1
03:00 0 J/kg -0.7 K 0 % 0 % 0 % 0 m²/s² 0 0 0.5 3
04:00 0 J/kg -0.8 K 0 % 0 % 0 % 0 m²/s² 0 0 0.4 2
05:00 1 J/kg -0.9 K 0 % 0 % 0 % 0 m²/s² 0 0 1.26 3
06:00 32 J/kg -0.7 K 0 % 0 % 0 % 0 m²/s² 0 0 1.61 3
07:00 294 J/kg -1.6 K 0 % 0 % 0 % 0 m²/s² 0 0 0.83 3
08:00 739 J/kg -2.9 K 0 % 0 % 0 % 0 m²/s² 0 0 -0.38 3
09:00 937 J/kg -3.4 K 0 % 0 % 0 % 0 m²/s² 0 0 -0.67 3
10:00 1022 J/kg -3.3 K 0 % 0 % 0 % 0 m²/s² 0 0 -0.39 3
11:00 726 J/kg -2.5 K 0 % 0 % 0 % 0 m²/s² 0 0 -0.07 3
12:00 528 J/kg -1.9 K 0 % 0 % 0 % 0 m²/s² 0 0 0.26 3
13:00 363 J/kg -1.6 K 0 % 0 % 0 % 0 m²/s² 0 0 0.92 2
14:00 227 J/kg -1.1 K 0 % 0 % 0 % 0 m²/s² 0 0 1.75 3
15:00 245 J/kg -1.0 K 0 % 0 % 0 % 0 m²/s² 0 0 1.91 2
16:00 284 J/kg -0.9 K 0 % 0 % 0 % 0 m²/s² 0 0 2.1 3
17:00 259 J/kg -0.9 K 0 % 0 % 0 % 0 m²/s² 0 0 2.13 3
18:00 250 J/kg -0.9 K 0 % 0 % 0 % 0 m²/s² 0 0 2.22 3
19:00 168 J/kg -0.5 K 0 % 0 % 0 % 0 m²/s² 0 0 2.29 3
20:00 224 J/kg -0.9 K 0 % 0 % 0 % 0 m²/s² 0 0 0.27 3
21:00 145 J/kg -0.9 K 0 % 0 % 0 % 0 m²/s² 0 0 0.12 3
22:00 96 J/kg -0.5 K 0 % 0 % 0 % 0 m²/s² 0 0 0.04 3
23:00 18 J/kg 0.1 K 0 % 0 % 0 % 0 m²/s² 0 0 0.64 3
 04:27     21:24    Daglengte: 16:57 Woensdag 28 Jul
00:00 2 J/kg 0.3 K 0 % 0 % 0 % 0 m²/s² 0 0 0.6 3
01:00 2 J/kg -0.7 K 0 % 0 % 0 % 0 m²/s² 0 0 -0.43 3
02:00 0 J/kg -0.4 K 0 % 0 % 0 % 0 m²/s² 0 0 -0.19 3
03:00 36 J/kg -0.6 K 0 % 0 % 0 % 0 m²/s² 0 0 -0.33 3
04:00 25 J/kg -1.3 K 0 % 0 % 0 % 0 m²/s² 0 0 -1.3 3
05:00 8 J/kg -2.4 K 0 % 0 % 0 % 0 m²/s² 0 0 -2.22 61
06:00 516 J/kg -2.2 K 0 % 0 % 0 % 0 m²/s² 0 0 -1.93 63
07:00 712 J/kg -2.4 K 0 % 0 % 0 % 0 m²/s² 0 0 -2.13 61
08:00 676 J/kg -1.9 K 0 % 0 % 0 % 0 m²/s² 0 0 -1.69 80
09:00 939 J/kg -2.8 K 0 % 0 % 0 % 0 m²/s² 0 0 -2.8 3
10:00 864 J/kg -2.7 K 0 % 0 % 0 % 0 m²/s² 0 0 -2.7 3
11:00 520 J/kg -2.0 K 0 % 0 % 0 % 0 m²/s² 0 0 -1.7 80
12:00 780 J/kg -2.8 K 0 % 0 % 0 % 0 m²/s² 0 0 -2.17 80
13:00 828 J/kg -3.1 K 0 % 0 % 0 % 0 m²/s² 0 0 -2.38 80
14:00 909 J/kg -3.5 K 0 % 0 % 0 % 0 m²/s² 0 0 -2.63 80
15:00 767 J/kg -3.0 K 0 % 0 % 0 % 0 m²/s² 0 0 -2.43 80
16:00 370 J/kg -1.9 K 0 % 0 % 0 % 0 m²/s² 0 0 -0.94 80
17:00 712 J/kg -2.6 K 0 % 0 % 0 % 0 m²/s² 0 0 -0.89 3
18:00 968 J/kg -3.3 K 0 % 0 % 0 % 0 m²/s² 0 0 -1.05 3
19:00 1042 J/kg -3.7 K 0 % 0 % 0 % 0 m²/s² 0 0 -1.18 2
20:00 793 J/kg -3.3 K 0 % 0 % 0 % 0 m²/s² 0 0 -0.48 1
21:00 538 J/kg -2.1 K 0 % 0 % 0 % 0 m²/s² 0 0 0.48 2
22:00 319 J/kg -1.7 K 0 % 0 % 0 % 0 m²/s² 0 0 -0.38 2
23:00 191 J/kg -1.2 K 0 % 0 % 0 % 0 m²/s² 0 0 0.06 1
 04:29     21:21    Daglengte: 16:52 Donderdag 29 Jul
00:00 172 J/kg -1.0 K 0 % 0 % 0 % 0 m²/s² 0 0 0.53 1
01:00 107 J/kg -0.7 K 0 % 0 % 0 % 0 m²/s² 0 0 0.35 0
02:00 40 J/kg -0.3 K 0 % 0 % 0 % 0 m²/s² 0 0 1.29 1
03:00 53 J/kg -0.1 K 0 % 0 % 0 % 0 m²/s² 0 0 1.67 1
04:00 35 J/kg 0.6 K 0 % 0 % 0 % 0 m²/s² 0 0 2.07 1
05:00 21 J/kg 0.8 K 0 % 0 % 0 % 0 m²/s² 0 0 2.06 1
06:00 69 J/kg 0.1 K 0 % 0 % 0 % 0 m²/s² 0 0 1.15 1
07:00 117 J/kg -0.3 K 0 % 0 % 0 % 0 m²/s² 0 0 0.93 2
08:00 113 J/kg -0.3 K 0 % 0 % 0 % 0 m²/s² 0 0 1.23 3
09:00 191 J/kg -0.9 K 0 % 0 % 0 % 0 m²/s² 0 0 0.72 3
10:00 295 J/kg -1.4 K 0 % 0 % 0 % 0 m²/s² 0 0 0.73 3
11:00 344 J/kg -1.6 K 0 % 0 % 0 % 0 m²/s² 0 0 0.26 3
12:00 343 J/kg -1.1 K 0 % 0 % 0 % 0 m²/s² 0 0 1.36 80
13:00 351 J/kg -0.8 K 0 % 0 % 0 % 0 m²/s² 0 0 0.94 95
14:00 378 J/kg -0.8 K 0 % 0 % 0 % 0 m²/s² 0 0 1.6 3
Temp Baro Wind Neerslag
  EWN Forecast EWN WRFDA DWD ICON FMI HIRLAM MET Norway GFS
 04:22     21:28    Daglengte: 17:06 Vandaag
17:00 25.3° 1017.7 hPa 4.3 m/s 0.0 mm 24.1° 1017.0 hPa 4.7 m/s 0.0 mm 25.8° 1017.6 hPa 4.1 m/s -2.0 mm 25.0° 1018.0 hPa 3.9 m/s 0.0 mm 24.8° 1017.9 hPa 4.0 m/s
20:00 22.2° 1017.1 hPa 3.0 m/s 0.0 mm 21.7° 1016.4 hPa 3.1 m/s 0.0 mm 22.7° 1016.7 hPa 2.9 m/s 0.0 mm 21.4° 1017.5 hPa 2.7 m/s 0.0 mm 20.4° 1017.0 hPa 2.3 m/s
23:00 18.8° 1017.0 hPa 2.1 m/s 0.0 mm 18.0° 1015.9 hPa 3.0 m/s 0.0 mm 18.9° 1017.0 hPa 1.8 m/s 0.0 mm 17.5° 1017.5 hPa 1.6 m/s 0.0 mm 16.7° 1017.0 hPa 2.3 m/s
 04:25     21:26    Daglengte: 17:01 Morgen
02:00 17.9° 1016.1 hPa 2.2 m/s 0.0 mm 18.3° 1015.1 hPa 3.4 m/s 0.0 mm 17.8° 1016.0 hPa 1.5 m/s 0.0 mm 16.5° 1016.7 hPa 1.9 m/s 0.0 mm 16.8° 1016.0 hPa 2.5 m/s
05:00 18.3° 1014.8 hPa 2.4 m/s 0.0 mm 18.4° 1013.5 hPa 4.0 m/s 0.0 mm 18.5° 1014.7 hPa 2.1 m/s 0.0 mm 16.1° 1015.7 hPa 1.8 m/s 0.0 mm 18.2° 1014.9 hPa 2.8 m/s
08:00 22.2° 1013.8 hPa 3.7 m/s 0.0 mm 23.1° 1012.9 hPa 4.2 m/s 0.0 mm 22.9° 1013.8 hPa 3.7 m/s 0.0 mm 20.4° 1014.7 hPa 2.5 m/s 0.0 mm 23.7° 1014.0 hPa 3.9 m/s
11:00 26.3° 1013.2 hPa 4.7 m/s 0.0 mm 26.9° 1012.1 hPa 5.4 m/s 0.0 mm 26.1° 1013.0 hPa 5.0 m/s 0.0 mm 27.5° 1014.0 hPa 3.9 m/s 0.0 mm 26.9° 1013.2 hPa 4.4 m/s
14:00 27.0° 1012.3 hPa 5.1 m/s 0.0 mm 27.7° 1011.2 hPa 6.4 m/s 0.0 mm 27.4° 1011.9 hPa 4.9 m/s 0.0 mm 27.3° 1013.2 hPa 4.4 m/s 0.0 mm 27.3° 1012.4 hPa 5.2 m/s
17:00 26.1° 1011.6 hPa 4.7 m/s 0.0 mm 26.9° 1010.1 hPa 5.7 m/s 0.0 mm 26.4° 1010.7 hPa 4.6 m/s 0.0 mm 26.3° 1012.4 hPa 3.7 m/s 0.0 mm 25.8° 1011.8 hPa 5.4 m/s
20:00 23.3° 1010.9 hPa 3.6 m/s 0.0 mm 23.7° 1008.9 hPa 3.7 m/s 0.0 mm 24.1° 1010.0 hPa 3.5 m/s 0.0 mm 23.9° 1011.5 hPa 3.6 m/s 0.0 mm 20.8° 1011.1 hPa 3.9 m/s
23:00 19.8° 1010.0 hPa 2.3 m/s 0.0 mm 19.7° 1007.4 hPa 2.4 m/s 0.0 mm 20.4° 1008.5 hPa 1.9 m/s 0.0 mm 19.9° 1010.6 hPa 2.2 m/s 0.0 mm 17.6° 1010.5 hPa 1.0 m/s
 04:27     21:24    Daglengte: 16:57 Woensdag 28 Jul
02:00 18.7° 1008.5 hPa 2.4 m/s 0.0 mm 19.1° 1005.2 hPa 2.4 m/s 0.1 mm 19.3° 1007.2 hPa 1.1 m/s 0.1 mm 18.1° 1009.1 hPa 2.4 m/s 0.0 mm 17.1° 1009.0 hPa 2.4 m/s
05:00 18.7° 1007.1 hPa 2.1 m/s 0.0 mm 18.9° 1002.5 hPa 4.2 m/s 8.3 mm 19.3° 1005.6 hPa 1.7 m/s 0.9 mm 17.4° 1007.9 hPa 1.8 m/s 0.0 mm 17.2° 1006.8 hPa 1.7 m/s
08:00 19.3° 1006.0 hPa 2.7 m/s 0.0 mm 20.8° 1000.9 hPa 5.2 m/s 21.2 mm 19.2° 1003.9 hPa 2.2 m/s 4.5 mm 19.0° 1006.9 hPa 2.3 m/s 0.0 mm 19.9° 1005.9 hPa 1.2 m/s
11:00 20.6° 1003.4 hPa 3.0 m/s 2.3 mm 20.6° 1000.9 hPa 3.1 m/s 28.2 mm 20.4° 1002.8 hPa 3.5 m/s 0.5 mm 23.7° 1004.9 hPa 3.6 m/s
14:00 22.2° 1003.1 hPa 4.3 m/s 8.2 mm 23.6° 1001.3 hPa 5.7 m/s 32.7 mm 21.6° 1002.6 hPa 4.8 m/s 0.7 mm 25.8° 1004.3 hPa 3.9 m/s
17:00 22.3° 1003.2 hPa 4.4 m/s 9.4 mm 24.5° 1001.6 hPa 4.8 m/s 33.3 mm 21.7° 1002.8 hPa 5.0 m/s 0.6 mm 24.5° 1004.2 hPa 4.3 m/s
20:00 21.7° 1002.6 hPa 3.1 m/s 12.3 mm 24.3° 1001.0 hPa 3.7 m/s 33.7 mm 21.7° 1002.2 hPa 3.0 m/s 0.0 mm 22.3° 1003.3 hPa 1.4 m/s
23:00 19.1° 1002.3 hPa 2.3 m/s 0.0 mm 20.1° 1001.3 hPa 3.2 m/s 33.7 mm 18.9° 1001.8 hPa 2.2 m/s 0.1 mm 18.1° 1003.1 hPa 1.8 m/s
 04:29     21:21    Daglengte: 16:52 Donderdag 29 Jul
02:00 17.6° 1002.1 hPa 2.3 m/s 3.9 mm 17.4° 1002.1 hPa 2.4 m/s 33.7 mm 17.3° 1000.6 hPa 2.2 m/s 0.0 mm 17.5° 1002.5 hPa 2.3 m/s
05:00 16.9° 1001.2 hPa 2.4 m/s 0.0 mm 16.7° 1001.3 hPa 2.5 m/s 33.7 mm 16.1° 999.4 hPa 2.2 m/s 0.0 mm 16.9° 1002.0 hPa 2.5 m/s
08:00 19.2° 1001.1 hPa 2.9 m/s 0.0 mm 19.6° 1001.6 hPa 3.9 m/s 33.7 mm 18.3° 998.0 hPa 2.8 m/s 0.0 mm 19.1° 1001.2 hPa 3.6 m/s
11:00 20.8° 997.4 hPa 3.6 m/s 0.0 mm 22.6° 1001.1 hPa 4.8 m/s 33.7 mm 20.3° 996.5 hPa 3.4 m/s 0.0 mm 23.2° 1000.2 hPa 4.1 m/s
14:00 20.4° 996.5 hPa 4.9 m/s 12.4 mm 23.7° 1000.3 hPa 5.6 m/s 33.7 mm 19.5° 995.5 hPa 4.8 m/s 1.7 mm 23.6° 998.6 hPa 4.7 m/s
17:00 19.5° 997.3 hPa 6.8 m/s 7.4 mm 19.5° 997.3 hPa 6.8 m/s 7.4 mm
20:00 14.9° 996.6 hPa 4.1 m/s 8.4 mm 14.9° 996.6 hPa 4.1 m/s 8.4 mm
23:00 13.1° 995.3 hPa 3.6 m/s 9.6 mm 13.1° 995.3 hPa 3.6 m/s 9.6 mm
 04:31     21:19    Daglengte: 16:48 Vrijdag 30 Jul
02:00 12.1° 993.6 hPa 2.6 m/s 9.9 mm 12.1° 993.6 hPa 2.6 m/s 9.9 mm
05:00 11.4° 992.2 hPa 2.4 m/s 9.9 mm 11.4° 992.2 hPa 2.4 m/s 9.9 mm
08:00 14.0° 991.5 hPa 3.8 m/s 10.6 mm 14.0° 991.5 hPa 3.8 m/s 10.6 mm
11:00 13.6° 991.1 hPa 2.7 m/s 11.6 mm 13.6° 991.1 hPa 2.7 m/s 11.6 mm
14:00 17.5° 991.3 hPa 3.9 m/s 12.4 mm 17.5° 991.3 hPa 3.9 m/s 12.4 mm
17:00 19.8° 992.1 hPa 3.6 m/s 13.0 mm 19.8° 992.1 hPa 3.6 m/s 13.0 mm
20:00 17.9° 992.8 hPa 2.3 m/s 13.2 mm 17.9° 992.8 hPa 2.3 m/s 13.2 mm
23:00 14.8° 994.0 hPa 2.5 m/s 13.2 mm 14.8° 994.0 hPa 2.5 m/s 13.2 mm
 04:34     21:17    Daglengte: 16:43 Zaterdag 31 Jul
02:00 12.2° 995.4 hPa 2.4 m/s 13.2 mm 12.2° 995.4 hPa 2.4 m/s 13.2 mm
05:00 10.8° 996.7 hPa 2.1 m/s 13.2 mm 10.8° 996.7 hPa 2.1 m/s 13.2 mm
08:00 16.3° 997.9 hPa 2.2 m/s 13.2 mm 16.3° 997.9 hPa 2.2 m/s 13.2 mm
11:00 20.3° 998.6 hPa 3.4 m/s 13.2 mm 20.3° 998.6 hPa 3.4 m/s 13.2 mm
14:00 22.1° 998.8 hPa 3.6 m/s 13.2 mm 22.1° 998.8 hPa 3.6 m/s 13.2 mm
17:00 23.2° 998.7 hPa 3.0 m/s 13.2 mm 23.2° 998.7 hPa 3.0 m/s 13.2 mm
20:00 19.5° 998.9 hPa 2.0 m/s 13.2 mm 19.5° 998.9 hPa 2.0 m/s 13.2 mm
23:00 15.4° 999.0 hPa 2.1 m/s 13.2 mm 15.4° 999.0 hPa 2.1 m/s 13.2 mm
 04:36     21:14    Daglengte: 16:38 Zondag 01 Aug
02:00 15.0° 998.4 hPa 1.5 m/s 13.2 mm 15.0° 998.4 hPa 1.5 m/s 13.2 mm
05:00 14.5° 997.2 hPa 0.9 m/s 13.2 mm 14.5° 997.2 hPa 0.9 m/s 13.2 mm
08:00 17.8° 996.4 hPa 2.3 m/s 13.3 mm 17.8° 996.4 hPa 2.3 m/s 13.3 mm
11:00 14.8° 996.1 hPa 2.8 m/s 16.4 mm 14.8° 996.1 hPa 2.8 m/s 16.4 mm
14:00 14.5° 996.9 hPa 2.4 m/s 21.0 mm 14.5° 996.9 hPa 2.4 m/s 21.0 mm
17:00 18.2° 997.4 hPa 3.3 m/s 21.2 mm 18.2° 997.4 hPa 3.3 m/s 21.2 mm
20:00 15.9° 997.8 hPa 2.3 m/s 21.8 mm 15.9° 997.8 hPa 2.3 m/s 21.8 mm
23:00 13.0° 998.5 hPa 2.9 m/s 21.8 mm 13.0° 998.5 hPa 2.9 m/s 21.8 mm
 04:38     21:12    Daglengte: 16:34 Maandag 02 Aug
02:00 12.4° 998.2 hPa 2.9 m/s 21.8 mm 12.4° 998.2 hPa 2.9 m/s 21.8 mm
05:00 11.4° 998.1 hPa 2.5 m/s 21.8 mm 11.4° 998.1 hPa 2.5 m/s 21.8 mm
08:00 15.5° 997.4 hPa 4.3 m/s 21.8 mm 15.5° 997.4 hPa 4.3 m/s 21.8 mm
11:00 18.7° 996.8 hPa 4.1 m/s 21.8 mm 18.7° 996.8 hPa 4.1 m/s 21.8 mm
14:00 20.5° 996.2 hPa 4.4 m/s 21.8 mm 20.5° 996.2 hPa 4.4 m/s 21.8 mm
20:00 16.2° 996.9 hPa 4.0 m/s 22.9 mm 16.2° 996.9 hPa 4.0 m/s 22.9 mm
 04:40     21:09    Daglengte: 16:29 Dinsdag 03 Aug
02:00 7.9° 1000.0 hPa 2.2 m/s 22.9 mm 7.9° 1000.0 hPa 2.2 m/s 22.9 mm
08:00 13.8° 1001.4 hPa 2.2 m/s 22.9 mm 13.8° 1001.4 hPa 2.2 m/s 22.9 mm
14:00 18.2° 1000.8 hPa 4.8 m/s 24.2 mm 18.2° 1000.8 hPa 4.8 m/s 24.2 mm
20:00 14.4° 1003.1 hPa 3.0 m/s 24.9 mm 14.4° 1003.1 hPa 3.0 m/s 24.9 mm
 04:43     21:07    Daglengte: 16:24 Woensdag 04 Aug
02:00 10.8° 1004.8 hPa 2.6 m/s 24.9 mm 10.8° 1004.8 hPa 2.6 m/s 24.9 mm
08:00 15.2° 1005.7 hPa 4.9 m/s 24.9 mm 15.2° 1005.7 hPa 4.9 m/s 24.9 mm
14:00 19.8° 1005.4 hPa 5.1 m/s 25.0 mm 19.8° 1005.4 hPa 5.1 m/s 25.0 mm
20:00 14.9° 1003.1 hPa 2.2 m/s 27.3 mm 14.9° 1003.1 hPa 2.2 m/s 27.3 mm
 04:45     21:04    Daglengte: 16:19 Donderdag 05 Aug
02:00 14.5° 1001.1 hPa 3.6 m/s 28.0 mm 14.5° 1001.1 hPa 3.6 m/s 28.0 mm
08:00 15.3° 998.4 hPa 3.7 m/s 28.6 mm 15.3° 998.4 hPa 3.7 m/s 28.6 mm
14:00 20.7° 1007.7 hPa 1.0 m/s 1.5 mm
20:00 18.1° 1007.1 hPa 1.2 m/s 1.4 mm
 04:47     21:02    Daglengte: 16:15 Vrijdag 06 Aug
02:00 14.2° 1007.3 hPa 0.7 m/s 0.2 mm
08:00 16.5° 1007.2 hPa 0.4 m/s 0.2 mm
14:00 21.2° 1007.0 hPa 1.1 m/s 1.1 mm
20:00 18.1° 1005.9 hPa 1.3 m/s 1.4 mm
 04:50     20:59    Daglengte: 16:09 Zaterdag 07 Aug
02:00 15.0° 1005.6 hPa 0.1 m/s 0.6 mm
08:00 16.7° 1004.8 hPa 0.4 m/s 1.1 mm
14:00 20.7° 1004.8 hPa 1.2 m/s 1.4 mm
20:00 18.1° 1004.6 hPa 0.8 m/s 0.9 mm
 04:52     20:57    Daglengte: 16:05 Zondag 08 Aug
02:00 15.0° 1004.6 hPa 0.5 m/s 0.4 mm
08:00 16.9° 1004.3 hPa 0.6 m/s 0.0 mm
14:00 21.9° 1004.9 hPa 1.1 m/s 0.0 mm
20:00 18.5° 1005.0 hPa 1.2 m/s 1.0 mm
 04:54     20:54    Daglengte: 16:00 Maandag 09 Aug
02:00 15.0° 1005.5 hPa 0.5 m/s 0.5 mm
08:00 16.4° 1005.8 hPa 0.5 m/s 0.9 mm
14:00 20.9° 1006.5 hPa 0.9 m/s 1.2 mm
20:00 18.1° 1006.5 hPa 0.8 m/s 0.7 mm
 04:56     20:51    Daglengte: 15:55 Dinsdag 10 Aug
02:00 14.4° 1007.0 hPa 1.1 m/s 0.7 mm
08:00 15.9° 1007.1 hPa 1.0 m/s 0.6 mm
14:00 20.7° 1008.0 hPa 0.8 m/s 0.0 mm
FMI Hirlam - 7.5 km EWN WRFDA - 12 km DWD ICON - 7 km GFS - 25 km Basiskaart






























































Updatetijd (Europe/Amsterdam) Resolutie Lengte Stap
FMI Hirlam 14:00, 20:00, 02:00, 08:00 7.5 km 49h 1h
EWN WRFDA 16:30, 22:30, 04:30, 10:30 12 km 73h 1h
DWD ICON 11:45, 17:45, 23:45, 05:45 7 km 75h 1h
GFS 14:15, 20:15, 02:15, 08:15 25 km 237h 3h
30+ mm
25-30 mm
20-25 mm
15-20 mm
10-15 mm
6-10 mm
4-6 mm
2-4 mm
1-2 mm
0.5-1 mm
0.2-0.5 mm
0.1-0.2 mm
30+ mm
25-30 mm
20-25 mm
15-20 mm
10-15 mm
6-10 mm
4-6 mm
2-4 mm
1-2 mm
0.5-1 mm
0.2-0.5 mm
0.1-0.2 mm
Sneeuwval
Natte sneeuw
Hagel
Vorst
30+ mm
25-30 mm
20-25 mm
15-20 mm
10-15 mm
6-10 mm
4-6 mm
2-4 mm
1-2 mm
0.5-1 mm
0.2-0.5 mm
0.1-0.2 mm
Sneeuwval
Natte sneeuw
Hagel
Vorst
Onweer
50 mm
40 mm
30 mm
26 mm
22 mm
18 mm
14 mm
10 mm
9 mm
8 mm
7 mm
6 mm
5 mm
4.5 mm
4 mm
3.5 mm
3 mm
2.5 mm
2 mm
1.5 mm
1 mm
0.8 mm
0.6 mm
0.4 mm
0.2 mm
0.05 mm
35°
30°
25°
20°
15°
10°
-5°
-10°
-15°
-20°
-25°
-30°
-35°
33> m/s
29 m/s
25 m/s
21 m/s
17 m/s
14 m/s
11 m/s
8 m/s
5 m/s